Location: Knowlton
(51.2333°N, 1.2667°E)
Time: 14:55:23
(UTC+00:00)

AO-7 - Visible Passes

Search period start: 09 December 2021 00:00
Search period end: 19 December 2021 00:00
Orbit: 1439 x 1459 km, 101.9° (Epoch: 08 December)

Date Brightness Start Highest point End Pass type
(mag) Time Alt. Az. Time Alt. Az. Time Alt. Az.
09 Dec ? 02:33:05 10° NE 02:38:34 19° E 02:44:01 10° SE visible
09 Dec ? 04:24:25 10° NNE 04:32:47 74° ESE 04:41:07 10° SSW visible
09 Dec ? 06:17:40 10° NNE 06:25:00 37° NW 06:32:21 10° WSW visible
09 Dec ? 17:28:53 10° WSW 17:32:10 13° W 17:35:29 10° WNW visible
10 Dec ? 03:24:48 10° NNE 03:32:23 37° E 03:39:55 10° SSE visible
10 Dec ? 05:17:24 10° NNE 05:25:38 66° WNW 05:33:50 10° SW visible
10 Dec ? 16:23:56 10° SSW 16:30:58 30° W 16:38:02 10° NW visible
11 Dec ? 02:26:22 10° NE 02:31:22 17° E 02:36:21 10° ESE visible
11 Dec ? 04:17:23 10° NNE 04:25:43 68° ESE 04:34:01 10° S visible
11 Dec ? 06:10:35 10° NNE 06:18:03 39° NW 06:25:33 10° WSW visible
11 Dec ? 17:20:52 10° WSW 17:24:57 14° W 17:29:03 10° NW visible
12 Dec ? 03:17:50 10° NNE 03:25:15 34° E 03:32:37 10° SSE visible
12 Dec ? 05:10:20 10° NNE 05:18:37 71° WNW 05:26:53 10° SW visible
12 Dec ? 07:03:52 10° N 07:10:05 24° NW 07:16:20 10° W visible
12 Dec ? 16:16:35 10° SSW 16:23:49 33° W 16:31:07 10° NNW visible
13 Dec ? 02:19:44 10° NE 02:24:09 15° E 02:28:34 10° ESE visible
13 Dec ? 04:10:22 10° NNE 04:18:39 63° ESE 04:26:54 10° S visible
13 Dec ? 06:03:30 10° NNE 06:11:06 42° NW 06:18:44 10° WSW visible
13 Dec ? 17:13:01 10° WSW 17:17:43 16° W 17:22:28 10° NW visible
14 Dec ? 03:10:55 10° NNE 03:18:06 31° E 03:25:16 10° SSE visible
14 Dec ? 05:03:17 10° NNE 05:11:36 76° WNW 05:19:55 10° SSW visible
14 Dec ? 06:56:46 10° N 07:03:12 26° NW 07:09:38 10° W visible
15 Dec ? 02:13:13 10° NE 02:16:56 13° E 02:20:39 10° ESE visible
15 Dec ? 04:03:21 10° NNE 04:11:34 58° ESE 04:19:46 10° S visible
15 Dec ? 05:56:25 10° NNE 06:04:09 45° NW 06:11:54 10° WSW visible
15 Dec ? 17:05:18 10° SW 17:10:31 18° W 17:15:47 10° NW visible
16 Dec ? 03:04:00 10° NE 03:10:58 28° E 03:17:54 10° SSE visible
16 Dec ? 04:56:14 10° NNE 05:04:35 82° WNW 05:12:56 10° SSW visible
16 Dec ? 06:49:40 10° N 06:56:17 28° NW 07:02:55 10° W visible
17 Dec ? 02:06:54 10° ENE 02:09:42 12° E 02:12:29 10° E visible
17 Dec ? 03:56:20 10° NNE 04:04:29 54° ESE 04:12:36 10° S visible
17 Dec ? 05:49:20 10° NNE 05:57:11 48° NW 06:05:02 10° SW visible
17 Dec ? 16:57:39 10° SW 17:03:19 20° W 17:09:02 10° NW visible
18 Dec ? 02:57:06 10° NE 03:03:48 26° E 03:10:29 10° SE visible
18 Dec ? 04:49:10 10° NNE 04:57:33 87° WNW 05:05:56 10° SSW visible
18 Dec ? 06:42:34 10° N 06:49:23 29° NW 06:56:12 10° W visible
